Location: Buenos Aires
(34.6076°S, 58.4371°W)
Time: 13:45:47
(UTC-03:00)

Envisat - Pass Details

Date: 26 June 2021
Orbit: 764 x 766 km, 98.2° (Epoch: 03 August)

Event Time Altitude Azimuth Distance (km) Brightness Sun altitude
Rises 18:16:26 0° 169° (S) 3,265 5.9 -5.3°
Reaches altitude 10° 18:18:45 10° 169° (S) 2,332 5.2 -5.7°
Maximum altitude 18:23:55 85° 256° (WSW) 781 3.1 -6.7°
Drops below altitude 10° 18:29:00 10° 344° (NNW) 2,303 6.1 -7.7°
Sets 18:31:17 0° 345° (NNW) 3,221 6.8 -8.1°
